Satellite: NOAA-10
Catalog number: 16969
Epoch time:      08037.64821848
Element set:    0996
Inclination:      098.7334 deg
RA of node:       059.8122 deg
Eccentricity:    0.0011923
Arg of perigee:   201.9281 deg
Mean anomaly:     158.1393 deg
Mean motion:   14.27350098 rev/day
Decay rate:       1.03e-06 rev/day^2
Epoch rev:           11267
Checksum:              315

Satellite: NOAA-11
Catalog number: 19531
Epoch time:      08038.26961732
Element set:      30
Inclination:      098.8003 deg
RA of node:       129.4216 deg
Eccentricity:    0.0012304
Arg of perigee:   081.5703 deg
Mean anomaly:     278.6844 deg
Mean motion:   14.14863836 rev/day
Decay rate:      -2.05e-06 rev/day^2
Epoch rev:           99939
Checksum:              306

Satellite: NOAA-12
Catalog number: 21263
Epoch time:      08038.43939721
Element set:     536
Inclination:      098.7645 deg
RA of node:       040.4158 deg
Eccentricity:    0.0012997
Arg of perigee:   142.2136 deg
Mean anomaly:     217.9965 deg
Mean motion:   14.25515674 rev/day
Decay rate:        3.6e-07 rev/day^2
Epoch rev:           86976
Checksum:              331

Satellite: MET-3/5
Catalog number: 21655
Epoch time:      08037.91809870
Element set:    0420
Inclination:      082.5544 deg
RA of node:       197.0993 deg
Eccentricity:    0.0013100
Arg of perigee:   347.1001 deg
Mean anomaly:     012.9784 deg
Mean motion:   13.17014155 rev/day
Decay rate:        5.1e-07 rev/day^2
Epoch rev:           79230
Checksum:              277

Satellite: MET-2/21
Catalog number: 22782
Epoch time:      08037.59689522
Element set:    0057
Inclination:      082.5442 deg
RA of node:       215.9437 deg
Eccentricity:    0.0021331
Arg of perigee:   301.1882 deg
Mean anomaly:     058.7191 deg
Mean motion:   13.83625436 rev/day
Decay rate:        3.7e-07 rev/day^2
Epoch rev:           72893
Checksum:              313

Satellite: OKEAN-4
Catalog number: 23317
Epoch time:      08038.79958393
Element set:     500
Inclination:      082.5361 deg
RA of node:       076.7342 deg
Eccentricity:    0.0021755
Arg of perigee:   192.1637 deg
Mean anomaly:     167.9081 deg
Mean motion:   14.82575868 rev/day
Decay rate:       1.27e-06 rev/day^2
Epoch rev:           71896
Checksum:              337

Satellite: NOAA-14
Catalog number: 23455
Epoch time:      08037.90867394
Element set:    0008
Inclination:      098.9621 deg
RA of node:       110.0076 deg
Eccentricity:    0.0009905
Arg of perigee:   151.7271 deg
Mean anomaly:     208.4441 deg
Mean motion:   14.13732888 rev/day
Decay rate:      -1.53e-06 rev/day^2
Epoch rev:           67580
Checksum:              307

Satellite: SICH-1
Catalog number: 23657
Epoch time:      08038.80006187
Element set:     299
Inclination:      082.5241 deg
RA of node:       217.6728 deg
Eccentricity:    0.0023646
Arg of perigee:   184.8329 deg
Mean anomaly:     175.2646 deg
Mean motion:   14.81549574 rev/day
Decay rate:       1.64e-06 rev/day^2
Epoch rev:           67091
Checksum:              327

Satellite: NOAA-15
Catalog number: 25338
Epoch time:      08038.44809281
Element set:     343
Inclination:      098.5474 deg
RA of node:       033.6801 deg
Eccentricity:    0.0011521
Arg of perigee:   065.7791 deg
Mean anomaly:     294.4610 deg
Mean motion:   14.24685416 rev/day
Decay rate:        7.1e-07 rev/day^2
Epoch rev:           50618
Checksum:              301

Satellite: RESURS
Catalog number: 25394
Epoch time:      08037.72817675
Element set:     850
Inclination:      098.4056 deg
RA of node:       087.5582 deg
Eccentricity:    0.0000807
Arg of perigee:   195.1975 deg
Mean anomaly:     164.9180 deg
Mean motion:   14.24152760 rev/day
Decay rate:       -3.3e-07 rev/day^2
Epoch rev:           49773
Checksum:              324

Satellite: FENGYUN1
Catalog number: 25730
Epoch time:      08038.91497175
Element set:     334
Inclination:      098.7133 deg
RA of node:       019.1556 deg
Eccentricity:    0.0021087
Arg of perigee:   175.8244 deg
Mean anomaly:     184.3105 deg
Mean motion:   14.07684822 rev/day
Decay rate:       6.71e-06 rev/day^2
Epoch rev:           45063
Checksum:              302

Satellite: OKEAN-0
Catalog number: 25860
Epoch time:      08037.58207862
Element set:     282
Inclination:      097.7421 deg
RA of node:       034.0102 deg
Eccentricity:    0.0001386
Arg of perigee:   039.9566 deg
Mean anomaly:     320.1747 deg
Mean motion:   14.73500961 rev/day
Decay rate:        7.4e-07 rev/day^2
Epoch rev:           46001
Checksum:              278

Satellite: NOAA-16
Catalog number: 26536
Epoch time:      08038.44250907
Element set:     795
Inclination:      099.1452 deg
RA of node:       024.8203 deg
Eccentricity:    0.0009944
Arg of perigee:   229.9452 deg
Mean anomaly:     130.0870 deg
Mean motion:   14.12469035 rev/day
Decay rate:       2.23e-06 rev/day^2
Epoch rev:           38031
Checksum:              294

Satellite: NOAA-17
Catalog number: 27453
Epoch time:      08037.86499517
Element set:    0793
Inclination:      098.5525 deg
RA of node:       106.2082 deg
Eccentricity:    0.0012707
Arg of perigee:   128.8548 deg
Mean anomaly:     231.3765 deg
Mean motion:   14.23947208 rev/day
Decay rate:       1.50e-06 rev/day^2
Epoch rev:           29211
Checksum:              319

